一网星座-0064星 (ONEWEB-0064 )

导读 | 星芒AI

ONEWEB-0064 是 OneWeb 卫星星座计划中的一颗低轨通信卫星,旨在为全球提供高速互联网服务。该卫星由阿丽亚娜集团制造,采用标准化设计以提高部署效率。它运行在约 1200 公里的近地轨道,与其他 OneWeb 卫星共同构建覆盖全球的宽带网络,特别服务于偏远和网络基础设施薄弱的地区。ONEWEB-0064 的发射进一步推动了 OneWeb 打造全球无缝连接的目标。

基本信息
目录编号:
45433
目录名称:
ONEWEB-0064
国际标识:
2020-020K
轨道中心:
EARTH
卫星名称:
一网星座-0064星
卫星全名:
一网星座-0064星 (ONEWEB-0064 )
卫星状态:
在轨 (已飞行2037 天)
发射日期:
2020-03-21 UTC
国别 :
英国 (GB)
星等 :
--
轨道信息
数据来源 国际轨道数据
星历时间: 2025-10-18T06:38:34+0800
7小时前
查看轨道信息
半长轴: 7595.827km
偏心率: 0.0001754
轨道倾角: 87.882°
近地点辐角 97.661°
升交点赤经 69.318°
平近点角 262.472°
近地点: 1216.359km
远地点: 1219.025km
周期: 109.805分钟
每日圈数: 13.114151
详细信息
平衡模式:
三轴稳定
覆盖范围:
全球
运营商:
一网卫星公司
运营商所在国:
英国
制造商(研发单位):
一网卫星公司
制造商所在国:
英国
使用方式:
暂无
卫星简介
OneWeb卫星网络由648颗重约125公斤的微型卫星组成,运行在1200公里的轨道上。 每颗卫星都能够提供至少每秒8千兆位的吞吐量,以使用其高吞吐量的Ku频段有效载荷为家庭和移动平台提供互联网接入。该卫星仍在工作。
2D轨道图
3D轨道图
轨道高度分析图
轨道倾角分析图
轨道综合分析图
查看轨道综合分析图